[{"OBJECT_NAME":"GEOSCAN 3 (RS92S3)","OBJECT_ID":"2025-155T","EPOCH":"2026-09-12T05:57:15.697440","MEAN_MOTION":15.38186421,"ECCENTRICITY":0.00040775,"INCLINATION":97.4631,"RA_OF_ASC_NODE":226.3649,"ARG_OF_PERICENTER":205.8362,"MEAN_ANOMALY":154.268,"EPHEMERIS_TYPE":0,"CLASSIFICATION_TYPE":"U","NORAD_CAT_ID":64893,"ELEMENT_SET_NO":999,"REV_AT_EPOCH":9422,"BSTAR":0.00038735262,"MEAN_MOTION_DOT":0.00014497,"MEAN_MOTION_DDOT":0},{"OBJECT_NAME":"INNOSAT 3 (RS92S0)","OBJECT_ID":"2025-155U","EPOCH":"2026-09-12T05:56:34.716192","MEAN_MOTION":15.50333463,"ECCENTRICITY":0.00035182,"INCLINATION":97.4568,"RA_OF_ASC_NODE":229.281,"ARG_OF_PERICENTER":172.0386,"MEAN_ANOMALY":188.0921,"EPHEMERIS_TYPE":0,"CLASSIFICATION_TYPE":"U","NORAD_CAT_ID":64894,"ELEMENT_SET_NO":999,"REV_AT_EPOCH":9442,"BSTAR":0.00068139416,"MEAN_MOTION_DOT":0.00038682,"MEAN_MOTION_DDOT":0},{"OBJECT_NAME":"KNACKSAT-2","OBJECT_ID":"1998-067XZ","EPOCH":"2026-09-12T07:29:09.993408","MEAN_MOTION":15.68476422,"ECCENTRICITY":0.00079593,"INCLINATION":51.6258,"RA_OF_ASC_NODE":213.5681,"ARG_OF_PERICENTER":152.6345,"MEAN_ANOMALY":207.5073,"EPHEMERIS_TYPE":0,"CLASSIFICATION_TYPE":"U","NORAD_CAT_ID":67683,"ELEMENT_SET_NO":999,"REV_AT_EPOCH":3391,"BSTAR":0.00048789278,"MEAN_MOTION_DOT":0.00056149,"MEAN_MOTION_DDOT":0},{"OBJECT_NAME":"MARINA","OBJECT_ID":"2026-156BD","EPOCH":"2026-09-11T16:01:48.326016","MEAN_MOTION":14.92152354,"ECCENTRICITY":0.00061369,"INCLINATION":97.7446,"RA_OF_ASC_NODE":154.032,"ARG_OF_PERICENTER":302.277,"MEAN_ANOMALY":57.7854,"EPHEMERIS_TYPE":0,"CLASSIFICATION_TYPE":"U","NORAD_CAT_ID":69920,"ELEMENT_SET_NO":999,"REV_AT_EPOCH":989,"BSTAR":0.00018056303,"MEAN_MOTION_DOT":0.00001782,"MEAN_MOTION_DDOT":0},{"OBJECT_NAME":"JAMX01 (JING'AN DREAM STAR)","OBJECT_ID":"2026-195A","EPOCH":"2026-09-12T03:38:22.331904","MEAN_MOTION":15.0935009,"ECCENTRICITY":0.00129918,"INCLINATION":97.5392,"RA_OF_ASC_NODE":328.6531,"ARG_OF_PERICENTER":189.9411,"MEAN_ANOMALY":170.1563,"EPHEMERIS_TYPE":0,"CLASSIFICATION_TYPE":"U","NORAD_CAT_ID":100465,"ELEMENT_SET_NO":999,"REV_AT_EPOCH":271,"BSTAR":0.0002701952,"MEAN_MOTION_DOT":0.00004257,"MEAN_MOTION_DDOT":0}]